CPA974 RPLL-VHHH

Flight info

Callsign CPA974
Flight time 2h 18m
Altitude 38000
Route CAB2R CAB A461 NOMAN V533 BETTY
Aircraft A343/H-SDE2E3FGHIJ4J5M1RWXY/LB1D1

Departure

Time 2026-05-05 15:14
Airport Ninoy Aquino International Airport (RPLL)

Arrival

Time 2026-05-05 17:33
Airport Hong Kong International Airport (VHHH)
Time Latitude Longitude Altitude Speed Heading
2026-05-05 15:14 14.55669 121.10606 2773 ft 253 kts 60°
2026-05-05 15:14 14.56667 121.12103 3741 ft 255 kts 49°
2026-05-05 15:15 14.58135 121.13172 4640 ft 265 kts 24°
2026-05-05 15:15 14.59952 121.13627 5455 ft 272 kts 10°
2026-05-05 15:15 14.61860 121.13724 6357 ft 277 kts
2026-05-05 15:15 14.63776 121.13626 7200 ft 281 kts 357°
2026-05-05 15:16 14.65737 121.13447 8064 ft 285 kts 356°
2026-05-05 15:16 14.67727 121.13225 8930 ft 289 kts 355°
2026-05-05 15:16 14.69737 121.12978 9810 ft 293 kts 355°
2026-05-05 15:16 14.71800 121.12716 10421 ft 306 kts 355°
2026-05-05 15:17 14.73987 121.12432 10728 ft 327 kts 354°
2026-05-05 15:17 14.76305 121.12126 11134 ft 342 kts 354°
2026-05-05 15:17 14.78699 121.11805 11726 ft 350 kts 354°
2026-05-05 15:17 14.81144 121.11477 12339 ft 357 kts 353°
2026-05-05 15:18 14.83613 121.11144 13043 ft 360 kts 353°
2026-05-05 15:18 14.86116 121.10807 13732 ft 364 kts 353°
2026-05-05 15:18 14.88644 121.10467 14314 ft 368 kts 353°
2026-05-05 15:18 14.91195 121.10123 14890 ft 372 kts 353°
2026-05-05 15:19 14.93772 121.09777 15512 ft 375 kts 353°
2026-05-05 15:19 14.96354 121.09429 16114 ft 379 kts 353°
2026-05-05 15:19 14.98982 121.09075 16727 ft 383 kts 353°
2026-05-05 15:19 15.01632 121.08719 17358 ft 386 kts 353°
2026-05-05 15:20 15.04321 121.08357 17982 ft 391 kts 353°
2026-05-05 15:20 15.07029 121.07992 18536 ft 395 kts 352°
2026-05-05 15:20 15.09761 121.07624 19077 ft 398 kts 352°
2026-05-05 15:20 15.12521 121.07252 19611 ft 402 kts 352°
2026-05-05 15:21 15.15316 121.06875 20137 ft 405 kts 352°
2026-05-05 15:21 15.18124 121.06497 20669 ft 408 kts 352°
2026-05-05 15:21 15.20960 121.06114 21195 ft 412 kts 352°
2026-05-05 15:21 15.23812 121.05730 21713 ft 415 kts 352°
2026-05-05 15:22 15.26650 121.05347 22211 ft 419 kts 352°
2026-05-05 15:22 15.29555 121.04955 22712 ft 422 kts 352°
2026-05-05 15:22 15.32480 121.04560 23208 ft 425 kts 352°
2026-05-05 15:22 15.35427 121.04162 23695 ft 428 kts 352°
2026-05-05 15:23 15.38400 121.03761 24099 ft 431 kts 352°
2026-05-05 15:23 15.41381 121.03358 24492 ft 434 kts 352°
2026-05-05 15:23 15.44390 121.02951 24897 ft 438 kts 351°
2026-05-05 15:23 15.47398 121.02389 25315 ft 440 kts 344°
2026-05-05 15:24 15.50290 121.01349 25710 ft 441 kts 336°
2026-05-05 15:24 15.53098 121.00029 26108 ft 443 kts 332°
2026-05-05 15:24 15.55816 120.98604 26509 ft 446 kts 331°
2026-05-05 15:24 15.58578 120.97090 26906 ft 448 kts 330°
2026-05-05 15:25 15.61334 120.95565 27299 ft 451 kts 330°
2026-05-05 15:25 15.64129 120.94030 27680 ft 453 kts 330°
2026-05-05 15:25 15.66936 120.92505 28071 ft 456 kts 330°
2026-05-05 15:25 15.69761 120.90986 28456 ft 458 kts 330°
2026-05-05 15:26 15.72604 120.89467 28829 ft 461 kts 330°
2026-05-05 15:26 15.75467 120.87942 29175 ft 463 kts 330°
2026-05-05 15:26 15.78340 120.86414 29528 ft 466 kts 330°
2026-05-05 15:26 15.81203 120.84891 29862 ft 468 kts 330°
2026-05-05 15:27 15.84112 120.83343 30169 ft 471 kts 330°
2026-05-05 15:27 15.87029 120.81789 30496 ft 472 kts 330°
2026-05-05 15:27 15.89967 120.80223 30821 ft 473 kts 330°
2026-05-05 15:27 15.92904 120.78657 31134 ft 474 kts 330°
2026-05-05 15:28 15.95843 120.77089 31453 ft 475 kts 330°
2026-05-05 15:28 15.98781 120.75520 31761 ft 476 kts 330°
2026-05-05 15:28 16.01728 120.73947 32081 ft 476 kts 330°
2026-05-05 15:28 16.04675 120.72373 32480 ft 474 kts 330°
2026-05-05 15:29 16.07606 120.70808 32921 ft 472 kts 330°
2026-05-05 15:29 16.10479 120.69273 33336 ft 469 kts 330°
2026-05-05 15:29 16.13372 120.67727 33759 ft 467 kts 330°
2026-05-05 15:29 16.16254 120.66184 34140 ft 466 kts 329°
2026-05-05 15:30 16.19144 120.64635 34459 ft 464 kts 329°
2026-05-05 15:30 16.22018 120.63096 34770 ft 463 kts 330°
2026-05-05 15:30 16.24892 120.61558 35027 ft 464 kts 329°
2026-05-05 15:30 16.27763 120.60022 35325 ft 464 kts 330°
2026-05-05 15:31 16.30622 120.58492 35697 ft 461 kts 330°
2026-05-05 15:31 16.33480 120.56959 35942 ft 461 kts 330°
2026-05-05 15:31 16.36291 120.55449 36213 ft 460 kts 330°
2026-05-05 15:31 16.39138 120.53923 36503 ft 459 kts 330°
2026-05-05 15:32 16.41971 120.52403 36776 ft 458 kts 330°
2026-05-05 15:32 16.44812 120.50879 37040 ft 458 kts 330°
2026-05-05 15:32 16.47650 120.49355 37307 ft 457 kts 330°
2026-05-05 15:32 16.50477 120.47838 37581 ft 456 kts 330°
2026-05-05 15:33 16.53297 120.46323 37843 ft 456 kts 330°
2026-05-05 15:33 16.56122 120.44805 37964 ft 458 kts 330°
2026-05-05 15:33 16.58954 120.43281 37968 ft 457 kts 330°
2026-05-05 15:34 16.64589 120.40252 37970 ft 455 kts 330°
2026-05-05 15:34 16.70126 120.37248 37937 ft 453 kts 327°
2026-05-05 15:35 16.75094 120.33269 37949 ft 447 kts 313°
2026-05-05 15:35 16.79465 120.28649 37941 ft 446 kts 311°
2026-05-05 15:36 16.83741 120.23923 37913 ft 447 kts 311°
2026-05-05 15:36 16.88005 120.19203 37928 ft 447 kts 311°
2026-05-05 15:37 16.92255 120.14522 37925 ft 447 kts 311°
2026-05-05 15:37 16.96539 120.09816 37906 ft 447 kts 311°
2026-05-05 15:38 17.00818 120.05115 37920 ft 446 kts 311°
2026-05-05 15:38 17.05088 120.00419 37920 ft 444 kts 311°
2026-05-05 15:39 17.09344 119.95735 37912 ft 444 kts 311°
2026-05-05 15:39 17.13601 119.91044 37917 ft 444 kts 311°
2026-05-05 15:40 17.17834 119.86379 37917 ft 444 kts 311°
2026-05-05 15:40 17.22085 119.81689 37918 ft 444 kts 311°
2026-05-05 15:41 17.26341 119.76991 37914 ft 443 kts 311°
2026-05-05 15:41 17.30563 119.72327 37914 ft 443 kts 311°
2026-05-05 15:42 17.34800 119.67643 37914 ft 443 kts 311°
2026-05-05 15:42 17.39039 119.62955 37917 ft 443 kts 310°
2026-05-05 15:43 17.43273 119.58268 37915 ft 442 kts 310°
2026-05-05 15:43 17.46774 119.54390 37914 ft 441 kts 310°
2026-05-05 15:44 17.51006 119.49697 37915 ft 441 kts 310°
2026-05-05 15:44 17.55192 119.45053 37914 ft 441 kts 310°
2026-05-05 15:45 17.59404 119.40377 37914 ft 441 kts 310°
2026-05-05 15:45 17.63626 119.35688 37915 ft 441 kts 310°
2026-05-05 15:46 17.67839 119.31004 37915 ft 441 kts 310°
2026-05-05 15:46 17.72049 119.26319 37915 ft 441 kts 310°
2026-05-05 15:47 17.76255 119.21637 37920 ft 440 kts 310°
2026-05-05 15:47 17.80445 119.16969 37917 ft 438 kts 310°
2026-05-05 15:48 17.84625 119.12309 37914 ft 438 kts 310°
2026-05-05 15:48 17.88774 119.07677 37914 ft 438 kts 310°
2026-05-05 15:49 17.92957 119.03007 37920 ft 438 kts 310°
2026-05-05 15:49 17.97140 118.98332 37916 ft 438 kts 310°
2026-05-05 15:50 18.01326 118.93656 37914 ft 438 kts 310°
2026-05-05 15:50 18.05476 118.89011 37913 ft 439 kts 310°
2026-05-05 15:51 18.09654 118.84326 37914 ft 439 kts 310°
2026-05-05 15:51 18.13834 118.79638 37911 ft 439 kts 310°
2026-05-05 15:52 18.18018 118.74944 37913 ft 439 kts 310°
2026-05-05 15:52 18.22168 118.70285 37922 ft 439 kts 310°
2026-05-05 15:53 18.26355 118.65581 37914 ft 439 kts 310°
2026-05-05 15:53 18.30537 118.60877 37915 ft 440 kts 310°
2026-05-05 15:54 18.34694 118.56201 37908 ft 440 kts 310°
2026-05-05 15:54 18.38873 118.51494 37915 ft 440 kts 310°
2026-05-05 15:55 18.43061 118.46775 37924 ft 439 kts 310°
2026-05-05 15:55 18.47210 118.42096 37920 ft 439 kts 310°
2026-05-05 15:56 18.51386 118.37382 37919 ft 440 kts 310°
2026-05-05 15:56 18.55561 118.32665 37921 ft 440 kts 310°
2026-05-05 15:57 18.59738 118.27941 37854 ft 441 kts 312°
2026-05-05 15:57 18.61850 118.25552 37695 ft 448 kts 310°
2026-05-05 15:57 18.63987 118.23148 39362 ft 447 kts 312°
2026-05-05 15:57 18.66113 118.20753 37879 ft 449 kts 310°
2026-05-05 15:58 18.68219 118.18371 37913 ft 447 kts 310°
2026-05-05 15:58 18.72417 118.13605 37924 ft 440 kts 310°
2026-05-05 15:59 18.76531 118.08928 37913 ft 439 kts 310°
2026-05-05 15:59 18.80701 118.04191 37911 ft 440 kts 310°
2026-05-05 16:00 18.84869 117.99457 37918 ft 440 kts 310°
2026-05-05 16:00 18.88994 117.94770 37928 ft 438 kts 310°
2026-05-05 16:01 18.93135 117.90060 37929 ft 437 kts 310°
2026-05-05 16:01 18.97278 117.85343 37925 ft 438 kts 310°
2026-05-05 16:02 19.01377 117.80673 39462 ft 438 kts 310°
2026-05-05 16:02 19.03463 117.78303 37828 ft 442 kts 311°
2026-05-05 16:02 19.05559 117.75919 37919 ft 444 kts 310°
2026-05-05 16:03 19.09714 117.71181 37927 ft 439 kts 310°
2026-05-05 16:03 19.13856 117.66443 37909 ft 437 kts 310°
2026-05-05 16:04 19.17987 117.61713 37916 ft 438 kts 310°
2026-05-05 16:04 19.22123 117.56978 37924 ft 438 kts 310°
2026-05-05 16:05 19.26250 117.52254 37920 ft 437 kts 310°
2026-05-05 16:05 19.30379 117.47525 37923 ft 436 kts 310°
2026-05-05 16:06 19.34463 117.42842 37929 ft 435 kts 310°
2026-05-05 16:06 19.38573 117.38126 37929 ft 435 kts 310°
2026-05-05 16:07 19.42679 117.33410 37930 ft 435 kts 310°
2026-05-05 16:07 19.46757 117.28723 37938 ft 435 kts 310°
2026-05-05 16:08 19.50861 117.24002 37929 ft 435 kts 310°
2026-05-05 16:08 19.54966 117.19277 37942 ft 435 kts 310°
2026-05-05 16:09 19.59060 117.14560 37932 ft 435 kts 310°
2026-05-05 16:09 19.63151 117.09843 37935 ft 434 kts 310°
2026-05-05 16:10 19.67230 117.05135 37935 ft 433 kts 310°
2026-05-05 16:10 19.71308 117.00426 37935 ft 433 kts 310°
2026-05-05 16:11 19.75384 116.95714 37938 ft 433 kts 310°
2026-05-05 16:12 19.83530 116.86287 37939 ft 433 kts 310°
2026-05-05 16:13 19.93684 116.74514 37944 ft 433 kts 310°
2026-05-05 16:13 19.97757 116.69784 37944 ft 433 kts 310°
2026-05-05 16:14 20.01207 116.64643 37944 ft 429 kts 298°
2026-05-05 16:14 20.04072 116.59074 37944 ft 429 kts 296°
2026-05-05 16:15 20.09578 116.47822 37949 ft 428 kts 296°
2026-05-05 16:16 20.15100 116.36603 37948 ft 428 kts 296°
2026-05-05 16:17 20.19241 116.28190 37948 ft 428 kts 296°
2026-05-05 16:18 20.23375 116.19776 37953 ft 427 kts 297°
2026-05-05 16:19 20.27483 116.11403 37952 ft 427 kts 296°
2026-05-05 16:19 20.28847 116.08621 37952 ft 427 kts 296°
2026-05-05 16:58 20.29274 116.07749 37918 ft 427 kts 297°
2026-05-05 16:58 20.30661 116.04921 37804 ft 433 kts 296°
2026-05-05 16:58 20.32054 116.02056 37902 ft 434 kts 296°
2026-05-05 16:59 20.34793 115.96458 37946 ft 424 kts 296°
2026-05-05 16:59 20.37517 115.90897 37945 ft 421 kts 297°
2026-05-05 17:00 20.40226 115.85354 37946 ft 421 kts 297°
2026-05-05 17:00 20.42927 115.79818 37949 ft 419 kts 297°
2026-05-05 17:01 20.45595 115.74341 37947 ft 418 kts 297°
2026-05-05 17:01 20.48281 115.68823 37651 ft 420 kts 297°
2026-05-05 17:02 20.49630 115.66049 37383 ft 422 kts 296°
2026-05-05 17:02 20.50985 115.63262 37120 ft 423 kts 297°
2026-05-05 17:02 20.52335 115.60482 36873 ft 422 kts 297°
2026-05-05 17:02 20.53686 115.57706 36621 ft 422 kts 297°
2026-05-05 17:03 20.55211 115.55019 36388 ft 423 kts 304°
2026-05-05 17:03 20.57068 115.52576 36138 ft 424 kts 311°
2026-05-05 17:03 20.59079 115.50318 35911 ft 425 kts 312°
2026-05-05 17:03 20.61173 115.48077 35662 ft 426 kts 313°
2026-05-05 17:04 20.63298 115.45857 35417 ft 427 kts 313°
2026-05-05 17:04 20.65425 115.43655 35184 ft 427 kts 313°
2026-05-05 17:04 20.67566 115.41440 34949 ft 427 kts 313°
2026-05-05 17:04 20.69700 115.39224 34712 ft 428 kts 313°
2026-05-05 17:05 20.71837 115.36996 34485 ft 428 kts 313°
2026-05-05 17:05 20.73964 115.34771 34274 ft 428 kts 313°
2026-05-05 17:05 20.76072 115.32563 34045 ft 429 kts 313°
2026-05-05 17:05 20.78197 115.30332 33796 ft 429 kts 313°
2026-05-05 17:06 20.80331 115.28090 33558 ft 430 kts 313°
2026-05-05 17:06 20.82463 115.25852 33026 ft 429 kts 313°
2026-05-05 17:06 20.84596 115.23610 32311 ft 430 kts 313°
2026-05-05 17:06 20.86734 115.21362 31682 ft 430 kts 312°
2026-05-05 17:07 20.88861 115.19128 31201 ft 426 kts 312°
2026-05-05 17:07 20.90971 115.16916 30683 ft 423 kts 312°
2026-05-05 17:07 20.93069 115.14714 30172 ft 421 kts 312°
2026-05-05 17:07 20.95120 115.12553 29620 ft 419 kts 312°
2026-05-05 17:08 20.97188 115.10372 29068 ft 415 kts 312°
2026-05-05 17:08 20.99237 115.08211 28543 ft 412 kts 312°
2026-05-05 17:08 21.01270 115.06066 28015 ft 408 kts 312°
2026-05-05 17:08 21.03284 115.03940 27506 ft 405 kts 312°
2026-05-05 17:09 21.05286 115.01827 27006 ft 403 kts 312°
2026-05-05 17:09 21.07276 114.99726 26478 ft 401 kts 312°
2026-05-05 17:09 21.09260 114.97632 25936 ft 400 kts 312°
2026-05-05 17:09 21.11237 114.95543 25438 ft 398 kts 312°
2026-05-05 17:10 21.13202 114.93468 24917 ft 397 kts 312°
2026-05-05 17:10 21.15170 114.91388 24390 ft 396 kts 312°
2026-05-05 17:10 21.17129 114.89316 23889 ft 396 kts 312°
2026-05-05 17:10 21.19087 114.87245 23335 ft 395 kts 312°
2026-05-05 17:11 21.21037 114.85182 22785 ft 393 kts 312°
2026-05-05 17:11 21.22958 114.83149 22265 ft 391 kts 312°
2026-05-05 17:11 21.24889 114.81105 21752 ft 388 kts 312°
2026-05-05 17:11 21.26802 114.79078 21238 ft 386 kts 312°
2026-05-05 17:12 21.28709 114.77059 20733 ft 384 kts 312°
2026-05-05 17:12 21.30601 114.75053 20233 ft 382 kts 312°
2026-05-05 17:12 21.32486 114.73054 19732 ft 380 kts 312°
2026-05-05 17:12 21.34362 114.71063 19233 ft 378 kts 313°
2026-05-05 17:13 21.36230 114.69081 18731 ft 377 kts 313°
2026-05-05 17:13 21.38091 114.67105 18238 ft 375 kts 313°
2026-05-05 17:13 21.39939 114.65143 17682 ft 374 kts 313°
2026-05-05 17:13 21.41782 114.63185 17184 ft 371 kts 313°
2026-05-05 17:14 21.43586 114.61268 16679 ft 368 kts 312°
2026-05-05 17:14 21.45404 114.59335 16188 ft 366 kts 312°
2026-05-05 17:14 21.47219 114.57419 15684 ft 365 kts 314°
2026-05-05 17:14 21.49267 114.55804 15165 ft 369 kts 329°
2026-05-05 17:15 21.51676 114.54781 14645 ft 372 kts 338°
2026-05-05 17:15 21.54133 114.53936 14149 ft 372 kts 339°
2026-05-05 17:15 21.56585 114.53106 13912 ft 363 kts 339°
2026-05-05 17:15 21.58966 114.52295 13696 ft 353 kts 338°
2026-05-05 17:16 21.61168 114.51282 13301 ft 345 kts 324°
2026-05-05 17:16 21.62979 114.49654 12917 ft 336 kts 311°
2026-05-05 17:16 21.64574 114.47836 12518 ft 332 kts 309°
2026-05-05 17:16 21.66127 114.46021 12206 ft 328 kts 309°
2026-05-05 17:17 21.67675 114.44216 11979 ft 329 kts 309°
2026-05-05 17:17 21.69237 114.42400 11815 ft 330 kts 310°
2026-05-05 17:17 21.70791 114.40598 11510 ft 327 kts 310°
2026-05-05 17:17 21.72334 114.38814 11202 ft 323 kts 310°
2026-05-05 17:18 21.73865 114.37043 10973 ft 323 kts 309°
2026-05-05 17:18 21.74873 114.35876 10813 ft 320 kts 310°
2026-05-05 17:18 21.76396 114.34111 10562 ft 322 kts 309°
2026-05-05 17:18 21.77903 114.32369 10416 ft 313 kts 310°
2026-05-05 17:19 21.79829 114.30150 10226 ft 300 kts 310°
2026-05-05 17:19 21.81236 114.28528 10076 ft 292 kts 309°
2026-05-05 17:19 21.82143 114.27477 9972 ft 287 kts 309°
2026-05-05 17:19 21.83491 114.25906 9682 ft 284 kts 309°
2026-05-05 17:20 21.84835 114.24340 9328 ft 283 kts 309°
2026-05-05 17:20 21.86173 114.22783 8969 ft 283 kts 309°
2026-05-05 17:20 21.87503 114.21236 8726 ft 280 kts 310°
2026-05-05 17:20 21.88816 114.19683 8530 ft 281 kts 308°
2026-05-05 17:21 21.89909 114.17946 8367 ft 275 kts 297°
2026-05-05 17:21 21.90841 114.16162 8125 ft 273 kts 297°
2026-05-05 17:21 21.91766 114.14355 7906 ft 278 kts 297°
2026-05-05 17:22 21.93559 114.10875 7499 ft 271 kts 296°
2026-05-05 17:22 21.94487 114.09082 7278 ft 276 kts 296°
2026-05-05 17:22 21.95420 114.07285 7072 ft 274 kts 296°
2026-05-05 17:22 21.96343 114.05495 6820 ft 276 kts 298°
2026-05-05 17:23 21.97266 114.03700 6623 ft 275 kts 297°
2026-05-05 17:23 21.98191 114.01905 6436 ft 274 kts 296°
2026-05-05 17:23 21.99122 114.00104 6285 ft 274 kts 296°
2026-05-05 17:23 22.00043 113.98322 6034 ft 272 kts 296°
2026-05-05 17:24 22.00961 113.96535 5796 ft 274 kts 296°
2026-05-05 17:24 22.01880 113.94737 5586 ft 272 kts 296°
2026-05-05 17:24 22.02801 113.92952 5392 ft 272 kts 296°
2026-05-05 17:24 22.03709 113.91199 5180 ft 271 kts 296°
2026-05-05 17:25 22.04624 113.89423 4955 ft 269 kts 296°
2026-05-05 17:25 22.05227 113.88251 4827 ft 259 kts 297°
2026-05-05 17:25 22.06405 113.85954 4733 ft 269 kts 298°
2026-05-05 17:25 22.07324 113.84176 4689 ft 270 kts 297°
2026-05-05 17:26 22.08067 113.82735 4420 ft 268 kts 296°
2026-05-05 17:26 22.08983 113.80960 4013 ft 273 kts 297°
2026-05-05 17:26 22.09951 113.79181 3750 ft 275 kts 303°
2026-05-05 17:26 22.11365 113.77805 3538 ft 276 kts 333°
2026-05-05 17:27 22.13210 113.77275 3334 ft 277 kts 354°
2026-05-05 17:27 22.15138 113.77074 3111 ft 279 kts 356°
2026-05-05 17:27 22.17040 113.76911 2983 ft 269 kts 357°
2026-05-05 17:27 22.18862 113.76744 2831 ft 255 kts 357°
2026-05-05 17:28 22.20541 113.76582 2645 ft 236 kts 358°
2026-05-05 17:28 22.22118 113.76424 2461 ft 219 kts 358°
2026-05-05 17:28 22.23588 113.76283 2264 ft 207 kts 358°
2026-05-05 17:28 22.24993 113.76166 2029 ft 196 kts
2026-05-05 17:29 22.26250 113.76463 1862 ft 182 kts 34°
2026-05-05 17:29 22.27101 113.77434 1757 ft 179 kts 66°
2026-05-05 17:29 22.27542 113.78686 1664 ft 176 kts 77°
2026-05-05 17:29 22.27889 113.79916 1603 ft 169 kts 72°
2026-05-05 17:30 22.28295 113.81098 1609 ft 166 kts 71°
2026-05-05 17:30 22.28654 113.82201 1539 ft 147 kts 73°
2026-05-05 17:30 22.28962 113.83197 1331 ft 135 kts 75°
2026-05-05 17:30 22.29255 113.84117 1149 ft 127 kts 74°
2026-05-05 17:31 22.29547 113.85020 990 ft 128 kts 74°
2026-05-05 17:31 22.29841 113.85933 814 ft 129 kts 72°
2026-05-05 17:31 22.30143 113.86837 715 ft 127 kts 73°
2026-05-05 17:31 22.30461 113.87768 489 ft 136 kts 75°
2026-05-05 17:32 22.30757 113.88713 294 ft 129 kts 75°
2026-05-05 17:32 22.31033 113.89600 101 ft 121 kts 74°
2026-05-05 17:32 22.31290 113.90421 40 ft 102 kts 70°
2026-05-05 17:32 22.31487 113.91027 40 ft 71 kts 70°
2026-05-05 17:33 22.31620 113.91441 40 ft 49 kts 71°
2026-05-05 17:33 22.31658 113.91634 40 ft 18 kts 87°
2026-05-05 17:33 22.31643 113.91765 39 ft 17 kts 100°
2026-05-05 17:33 22.31619 113.91893 39 ft 17 kts 101°
2026-05-05 17:34 22.31592 113.92012 39 ft 16 kts 116°
2026-05-05 17:34 22.31568 113.92121 39 ft 14 kts 79°
2026-05-05 17:34 22.31600 113.92227 39 ft 17 kts 71°
2026-05-05 17:34 22.31638 113.92354 39 ft 20 kts 78°
2026-05-05 17:35 22.31605 113.92507 39 ft 23 kts 114°
2026-05-05 17:35 22.31537 113.92665 39 ft 25 kts 115°
2026-05-05 17:35 22.31466 113.92757 39 ft 13 kts 144°
2026-05-05 17:35 22.31383 113.92796 39 ft 12 kts 161°
2026-05-05 17:36 22.31376 113.92799 39 ft 0 kts 161°
2026-05-05 17:36 22.31386 113.92795 39 ft 0 kts 161°